Regional Weather Roundup
Issued by NWS Portland, ME

Current Version | Previous Version | Text Only | Print | Product List | Glossary Off
Versions: 1 2 3 4 5 6 7 8 9 10 11 12 13 14 15 16 17 18 19 20 21 22 23 24 25 26 27 28 29 30 31 32 33 34 35 36 37 38 39 40 41 42 43 44 45 46 47 48 49 50
969 ASUS41 KGYX 182210 RWRGYX WEATHER ROUNDUP FOR MAINE AND NEW HAMPSHIRE NATIONAL WEATHER SERVICE GRAY ME 600 PM EDT THU OCT 18 2018 MEZ002-005-006-010-012-015-018-020-021-024-026-027-029-182300- MAINE CITY SKY/WX TMP DP RH WIND PRES REMARKS PORTLAND FAIR 39 18 42 W7 30.18R SANFORD FAIR 38 18 44 W7 30.20R BAR HARBOR FAIR 38 15 39 NW10G18 30.09R WISCASSET FAIR 38 17 42 W9 30.17R ROCKLAND FAIR 37 17 44 W9G18 30.13R FRYEBURG MOCLDY 36 17 46 VRB5 30.18R LEWISTONAUBURN FAIR 38 16 40 NW7 30.16R AUGUSTA CLOUDY 37 15 40 NW8G24 30.14R WATERVILLE FAIR 37 15 40 NW8G21 30.11R BANGOR FAIR 37 16 42 NW14 30.09R GREENVILLE N/A 30 13 49 NW23G39 29.99R WCI 17 MILLINOCKET FAIR 35 16 45 NW15G24 30.05R HOULTON FAIR 34 15 46 NW17G24 29.96R PRESQUE ISLE FAIR 33 15 47 NW14G26 29.98R FRENCHVILLE FAIR 33 14 45 NW20G26 29.94R CARIBOU FAIR 34 15 46 NW15G24 29.95R $$ NHZ002-005-008-009-011-012-014-182300- NEW HAMPSHIRE CITY SKY/WX TMP DP RH WIND PRES REMARKS PORTSMOUTH PTCLDY 41 16 36 W13 30.19R ROCHESTER FAIR 39 19 44 CALM 30.19R NASHUA FAIR 42 15 33 W8 30.22R MANCHESTER FAIR 43 15 32 W8G17 30.20R CONCORD FAIR 40 15 36 NW8 30.21R LACONIA FAIR 38 17 42 W5 30.20R PLYMOUTH FAIR 37 17 43 CALM 30.19R BERLIN MOCLDY 34 17 50 NW12G24 30.14R WHITEFIELD MOCLDY 34 17 50 W12G21 30.17R JAFFREY FAIR 39 16 39 W6 30.21R KEENE FAIR 41 16 36 W7 30.23R LEBANON FAIR 40 16 37 N6 30.21R MT WASHINGTON SNOWSHWR 9 9 100 W66G74 N/A VSB 1/8 WCI -22 $$ VTZ005-007-008-182300- VERMONT CITY SKY/WX TMP DP RH WIND PRES REMARKS ST JOHNSBURY N/A 35 17 47 MISG 30.18S MONTPELIER FAIR 34 16 47 NW7G17 30.22S BURLINGTON FAIR 41 15 35 NW10 30.23S $$ MAZ007-012-024-CTZ003-RIZ002-NYZ038-NYZ072-182300- SOUTHERN NEW ENGLAND AND NY CITY SKY/WX TMP DP RH WIND PRES REMARKS BOSTON FAIR 46 13 26 NW16G22 30.23R WORCESTER FAIR 38 18 44 W12 30.21R NANTUCKET FAIR 43 19 38 W9 30.23R PROVIDENCE FAIR 44 18 35 NW9 30.26R HARTFORD FAIR 43 18 36 NW12 30.27R ALBANY FAIR 42 18 37 NW16G30 30.31R NEW YORK CITY FAIR 52 23 32 NW16G24 30.31R $$ ANZ081-ANZ082-ANZ150-NHZ014-MEZ023>029-182300- COASTAL MARINE OBSERVATIONS STATION/POSITION TIME TEMP WIND PRES WAVE AIR SEA DIR/SP/G HT/PER (UTC) (F) (DEG/KT/KT) (MB) (FT/S) MOUNT DESERT ROC 2200 41 290/ 35/ 40 1018.8R MATINICUS ROCK 2100 41 310/ 27/ 33 1018.8R ISLE OF SHOALS 2100 43 310/ 21/ 23 1021.6R JEFFREYS LEDGE 2106 55 N/A 5/ 6 $$ .............KEY.............. WCI - WIND CHILL TC - TEMPERATURE IN CELSIUS VSB - VISIBILITY IN MILES HX - HEAT INDEX FAIR- INDICATES FEW OR NO CLOUDS BELOW 12,000 FT, WITH NO SIGNIFICANT WEATHER AND/OR OBSTRUCTIONS TO VISIBILITY.

USA.gov is the U.S. government's official web portal to all federal, state and local government web resources and services.